Flag for Isle of Man Weather past 2 weeks in Douglas, Isle of Man

Now
52 °F

Passing clouds.


Feels Like: 46 °F
Forecast: 55 / 61 °F
Wind: 20 mph from Northwest

Location: Isle Of Man / Ronaldsway Airport

Current Time: Jul 30, 2015 at 6:04:13 AM

Latest Report: Jul 30, 2015 at 5:20 AM


Visibility: N/A

Pressure: 30.04 "Hg

Humidity: 67%

Dew point: 41 °F

Location of DouglasLocation

Historic Weather in Douglas — Graph

°F

Douglas temperature yesterday

Maximum temperature yesterday: 61 °F (at 12:20 PM)
Minimum temperature yesterday: 52 °F (at 12:50 AM)
Average temperature yesterday: 56 °F

Past Weeks' High & Low Weather Summary

 TemperatureHumidityPressure
High64 °F (Jul 16, 1:50 PM)100% (Jul 16, 9:20 PM)30.15 "Hg (Jul 16, 9:20 PM)
Low48 °F (Jul 15, 4:50 AM)39% (Jul 15, 4:50 PM)29.30 "Hg (Jul 26, 7:50 PM)
Average57 °F80%29.80 "Hg
* Reported Jul 15 4:50 AM — Jul 30 4:50 AM, Douglas, Weather by CustomWeather, © 2015

Note: Actual official high and low records may vary slightly from our data, if they occured in-between our weather recording intervals... More about our weather records

Advertising

Douglas weather history for previous 24 hours

 ConditionsComfort  
Time TempWeatherWind HumidityBarometerVisibility
4:50 AM
Thu, Jul 30
52 °FPassing clouds.16 mph72%30.04 "HgN/A
3:50 AM52 °FPassing clouds.13 mph72%30.04 "HgN/A
2:50 AM52 °FPassing clouds.12 mph77%30.04 "HgN/A
2:20 AM52 °FPassing clouds.15 mph77%30.04 "HgN/A
1:50 AM52 °FPassing clouds.14 mph77%30.04 "HgN/A
1:20 AM52 °FPassing clouds.15 mph77%30.04 "HgN/A
12:50 AM54 °FPassing clouds.16 mph77%30.04 "HgN/A
11:50 PM
Wed, Jul 29
54 °FPassing clouds.20 mph77%30.01 "HgN/A
10:50 PM54 °FPassing clouds.14 mph72%30.01 "HgN/A
9:50 PM54 °FPassing clouds.13 mph72%29.98 "HgN/A
9:20 PM54 °FPassing clouds.14 mph72%29.98 "HgN/A
8:50 PM54 °FPassing clouds.14 mph72%29.98 "HgN/A
8:20 PM54 °FPassing clouds.15 mph72%29.98 "HgN/A
7:50 PM55 °FPassing clouds.16 mph63%29.95 "HgN/A
7:20 PM55 °FPassing clouds.20 mph67%29.95 "HgN/A
6:50 PM57 °FPassing clouds.17 mph67%29.95 "HgN/A
6:20 PM57 °FPassing clouds.20 mph63%29.95 "HgN/A
5:50 PM59 °FPassing clouds.18 mph59%29.95 "HgN/A
5:20 PM59 °FPassing clouds.16 mph59%29.95 "HgN/A
4:50 PM59 °FPassing clouds.17 mph68%29.92 "HgN/A
4:20 PM59 °FPassing clouds.16 mph63%29.92 "HgN/A
3:50 PM61 °FPassing clouds.17 mph63%29.92 "HgN/A
3:20 PM59 °FPassing clouds.17 mph68%29.92 "HgN/A
2:50 PM59 °FPassing clouds.15 mph68%29.92 "HgN/A
2:20 PM59 °FPassing clouds.14 mph63%29.92 "HgN/A
1:50 PM61 °FPassing clouds.16 mph59%29.89 "HgN/A
1:20 PM59 °FPassing clouds.16 mph63%29.89 "HgN/A
12:50 PM59 °FPassing clouds.14 mph63%29.89 "HgN/A
12:20 PM61 °FPassing clouds.17 mph63%29.89 "HgN/A
11:50 AM59 °FPassing clouds.16 mph68%29.86 "HgN/A
11:20 AM57 °FPassing clouds.17 mph72%29.86 "HgN/A
10:50 AM57 °FPassing clouds.17 mph82%29.86 "HgN/A
10:20 AM55 °FPassing clouds.12 mph82%29.86 "HgN/A
9:50 AM55 °FRain showers. Broken clouds.15 mph88%29.86 "HgN/A
9:20 AM57 °FScattered clouds.14 mph72%29.83 "HgN/A
8:20 AM55 °FPassing clouds.12 mph82%29.83 "HgN/A
7:50 AM55 °FScattered clouds.10 mph82%29.80 "HgN/A
7:20 AM54 °FScattered clouds.10 mph88%29.80 "HgN/A
6:50 AM52 °FScattered clouds.7 mph94%29.71 "HgN/A
6:20 AM52 °FSprinkles. Passing clouds.9 mph88%29.80 "HgN/A
Weather by CustomWeather, © 2015

See weather overviewHow to use our weather pages